This demonstration page uses our WeatherBlox Daily Observations layout. Learn more.

Left ArrowRight Arrow

47.50024, -111.30081

Hourly Observations for April 3, 2018

Temp ( °F °C ) Dew Point ( °F °C ) Humidity (%) Winds ( mph kmh ) Pressure ( in mb ) Visibility ( mi km ) Precip ( " mm )
12:53 am 00:53 Clear 2 -16.7 1 -17.2 96 96 SSW 8 13 30.32 1027 10 16 0.00 0.00
1:53 am 01:53 Clear 2 -16.7 1 -17.2 96 96 SSW 7 11 30.31 1027 8 13 0.00 0.00
2:53 am 02:53 Clear 0 -17.8 -2 -18.9 91 91 SSW 7 11 30.30 1026 10 16 0.00 0.00
3:53 am 03:53 Partly Cloudy 4 -15.6 1 -17.2 88 88 SSW 7 11 30.29 1026 10 16 0.00 0.00
4:53 am 04:53 Cloudy 6 -14.4 3 -16.1 87 87 SSW 6 9 30.27 1025 10 16 0.00 0.00
5:53 am 05:53 Clear 5 -15 1 -17.2 83 83 SSW 5 7 30.27 1025 10 16 0.00 0.00
6:53 am 06:53 Clear 5 -15 2 -16.7 87 87 SSW 10 17 30.26 1025 10 16 0.00 0.00
7:53 am 07:53 Mostly Cloudy 5 -15 3 -16.1 91 91 SSW 9 15 30.26 1025 10 16 0.00 0.00
12:53 pm 12:53 Sunny 32 0 20 -6.7 61 61 SW 20 31 30.17 1022 N/A 0.00 0.00
1:31 pm 13:31 Mostly Sunny 34 1.1 21 -6.1 59 59 SW 20 31 30.06 1018 10 16 0.00 0.00
1:53 pm 13:53 Sunny 35 1.7 22 -5.6 59 59 SW 20 31 30.15 1021 10 16 0.00 0.00
2:53 pm 14:53 Mostly Cloudy 37 2.8 21 -6.1 52 52 SW 20 31 30.14 1021 10 16 0.00 0.00
3:53 pm 15:53 Mostly Cloudy 38 3.3 22 -5.6 52 52 SW 20 31 30.11 1020 10 16 0.00 0.00
5:53 pm 17:53 Partly Cloudy 38 3.3 20 -6.7 48 48 W 14 22 30.08 1019 10 16 0.00 0.00
6:53 pm 18:53 Cloudy 38 3.3 22 -5.6 52 52 W 10 17 30.08 1019 10 16 0.00 0.00
7:53 pm 19:53 Cloudy 35 1.7 24 -4.4 64 64 W 8 13 30.08 1019 10 16 0.00 0.00
8:53 pm 20:53 Cloudy 31 -0.6 26 -3.3 82 82 NE 6 9 30.06 1018 10 16 0.00 0.00
9:53 pm 21:53 Clear 30 -1.1 26 -3.3 85 85 E 5 7 30.05 1018 10 16 0.00 0.00
10:53 pm 22:53 Clear 30 -1.1 25 -3.9 82 82 S 7 11 30.03 1017 10 16 0.00 0.00
11:53 pm 23:53 Clear 29 -1.7 26 -3.3 89 89 ENE 3 6 30.02 1017 10 16 0.00 0.00

Powered by AerisWeather